Time,TemperatureF,DewpointF,PressureIn,WindDirection,WindDirectionDegrees,WindSpeedMPH,WindSpeedGustMPH,Humidity,HourlyPrecipIn,Conditions,Clouds,dailyrainin,SoftwareType,DateUTC
2013-03-05 00:00:00,6.7,1.6,30.11,North,8,0.0,0.0,79,0.00,,CLR,0.00,VWS V14.01,2013-03-05 05:00:00,
2013-03-05 00:02:00,6.7,1.6,30.11,North,8,0.0,0.0,79,0.00,,CLR,0.00,VWS V14.01,2013-03-05 05:02:00,
2013-03-05 00:07:00,6.5,1.4,30.11,North,8,0.0,0.0,79,0.00,,CLR,0.00,VWS V14.01,2013-03-05 05:07:00,
2013-03-05 00:13:00,6.3,1.2,30.11,North,8,0.0,0.0,79,0.00,,CLR,0.00,VWS V14.01,2013-03-05 05:13:00,
2013-03-05 00:18:00,6.3,1.2,30.11,North,8,0.0,0.0,79,0.00,,CLR,0.00,VWS V14.01,2013-03-05 05:18:00,
2013-03-05 00:23:00,6.1,1.0,30.11,North,8,0.0,0.0,79,0.00,,CLR,0.00,VWS V14.01,2013-03-05 05:23:00,
2013-03-05 00:28:00,6.0,0.9,30.11,North,8,0.0,0.0,79,0.00,,CLR,0.00,VWS V14.01,2013-03-05 05:28:00,
2013-03-05 00:33:00,6.0,0.9,30.11,North,8,0.0,0.0,79,0.00,,CLR,0.00,VWS V14.01,2013-03-05 05:33:00,
2013-03-05 00:38:00,6.0,0.9,30.11,North,8,0.0,0.0,79,0.00,,CLR,0.00,VWS V14.01,2013-03-05 05:38:00,
2013-03-05 00:43:00,6.0,0.3,30.11,North,8,0.0,0.0,77,0.00,,CLR,0.00,VWS V14.01,2013-03-05 05:43:00,
2013-03-05 00:48:00,5.8,0.2,30.11,North,8,0.0,0.0,77,0.00,,CLR,0.00,VWS V14.01,2013-03-05 05:48:00,
2013-03-05 00:53:00,5.6,0.0,30.11,North,8,0.0,0.0,77,0.00,,CLR,0.00,VWS V14.01,2013-03-05 05:53:00,
2013-03-05 00:58:00,5.6,0.0,30.11,North,8,0.0,0.0,77,0.00,,CLR,0.00,VWS V14.01,2013-03-05 05:58:00,
2013-03-05 01:03:00,5.6,0.0,30.11,North,8,0.0,0.0,77,0.00,,CLR,0.00,VWS V14.01,2013-03-05 06:03:00,
2013-03-05 01:08:00,5.6,0.0,30.11,North,8,0.0,0.0,77,0.00,,CLR,0.00,VWS V14.01,2013-03-05 06:08:00,
2013-03-05 01:13:00,5.6,0.0,30.11,North,8,0.0,0.0,77,0.00,,CLR,0.00,VWS V14.01,2013-03-05 06:13:00,
2013-03-05 01:18:00,5.6,0.0,30.10,North,8,0.0,0.0,77,0.00,,CLR,0.00,VWS V14.01,2013-03-05 06:18:00,
2013-03-05 01:23:00,5.4,-0.2,30.10,North,8,0.0,0.0,77,0.00,,CLR,0.00,VWS V14.01,2013-03-05 06:23:00,
2013-03-05 01:29:00,5.0,-0.6,30.10,North,8,0.0,0.0,77,0.00,,CLR,0.00,VWS V14.01,2013-03-05 06:29:00,
2013-03-05 01:34:00,5.0,-0.6,30.11,North,8,0.0,0.0,77,0.00,,CLR,0.00,VWS V14.01,2013-03-05 06:34:00,
2013-03-05 01:39:00,4.8,-0.8,30.11,North,8,0.0,0.0,77,0.00,,CLR,0.00,VWS V14.01,2013-03-05 06:39:00,
2013-03-05 01:44:00,4.7,-0.9,30.11,North,8,0.0,0.0,77,0.00,,CLR,0.00,VWS V14.01,2013-03-05 06:44:00,
2013-03-05 01:49:00,4.7,-0.9,30.10,North,8,0.0,0.0,77,0.00,,CLR,0.00,VWS V14.01,2013-03-05 06:49:00,
2013-03-05 01:54:00,4.7,-0.9,30.10,North,8,0.0,0.0,77,0.00,,CLR,0.00,VWS V14.01,2013-03-05 06:54:00,
2013-03-05 01:59:00,4.7,-1.2,30.10,North,8,0.0,0.0,76,0.00,,CLR,0.00,VWS V14.01,2013-03-05 06:59:00,
2013-03-05 02:04:00,4.7,-1.2,30.11,North,8,0.0,0.0,76,0.00,,CLR,0.00,VWS V14.01,2013-03-05 07:04:00,
2013-03-05 02:09:00,4.3,-1.6,30.11,North,8,0.0,0.0,76,0.00,,CLR,0.00,VWS V14.01,2013-03-05 07:09:00,
2013-03-05 02:14:00,4.3,-1.6,30.11,North,8,0.0,0.0,76,0.00,,CLR,0.00,VWS V14.01,2013-03-05 07:14:00,
2013-03-05 02:19:00,4.3,-1.6,30.10,North,8,0.0,0.0,76,0.00,,CLR,0.00,VWS V14.01,2013-03-05 07:19:00,
2013-03-05 02:24:00,4.1,-1.8,30.10,North,8,0.0,0.0,76,0.00,,CLR,0.00,VWS V14.01,2013-03-05 07:24:00,
2013-03-05 02:29:00,3.9,-2.0,30.10,North,8,0.0,0.0,76,0.00,,CLR,0.00,VWS V14.01,2013-03-05 07:29:00,
2013-03-05 02:34:00,3.9,-2.0,30.10,North,8,0.0,0.0,76,0.00,,CLR,0.00,VWS V14.01,2013-03-05 07:34:00,
2013-03-05 02:40:00,3.9,-2.2,30.10,North,8,0.0,0.0,75,0.00,,CLR,0.00,VWS V14.01,2013-03-05 07:40:00,
2013-03-05 02:45:00,3.7,-2.4,30.10,North,8,0.0,0.0,75,0.00,,CLR,0.00,VWS V14.01,2013-03-05 07:45:00,
2013-03-05 02:50:00,3.7,-2.4,30.11,North,8,0.0,0.0,75,0.00,,CLR,0.00,VWS V14.01,2013-03-05 07:50:00,
2013-03-05 02:55:00,3.7,-2.4,30.11,North,8,0.0,0.0,75,0.00,,CLR,0.00,VWS V14.01,2013-03-05 07:55:00,
2013-03-05 03:00:00,3.7,-2.4,30.11,North,8,0.0,0.0,75,0.00,,CLR,0.00,VWS V14.01,2013-03-05 08:00:00,
2013-03-05 03:05:00,3.9,-2.2,30.11,North,8,0.0,0.0,75,0.00,,CLR,0.00,VWS V14.01,2013-03-05 08:05:00,
2013-03-05 03:10:00,3.9,-2.2,30.11,North,8,0.0,0.0,75,0.00,,CLR,0.00,VWS V14.01,2013-03-05 08:10:00,
2013-03-05 03:15:00,3.9,-2.0,30.10,North,8,0.0,0.0,76,0.00,,CLR,0.00,VWS V14.01,2013-03-05 08:15:00,
2013-03-05 03:20:00,3.9,-2.0,30.10,North,8,0.0,0.0,76,0.00,,CLR,0.00,VWS V14.01,2013-03-05 08:20:00,
2013-03-05 03:25:00,3.9,-2.0,30.10,North,8,0.0,0.0,76,0.00,,CLR,0.00,VWS V14.01,2013-03-05 08:25:00,
2013-03-05 03:30:00,3.5,-2.3,30.10,North,8,0.0,0.0,76,0.00,,CLR,0.00,VWS V14.01,2013-03-05 08:30:00,
2013-03-05 03:36:00,3.5,-2.3,30.10,North,8,0.0,0.0,76,0.00,,CLR,0.00,VWS V14.01,2013-03-05 08:36:00,
2013-03-05 03:41:00,3.5,-2.3,30.10,North,8,0.0,0.0,76,0.00,,CLR,0.00,VWS V14.01,2013-03-05 08:41:00,
2013-03-05 03:46:00,3.4,-2.5,30.10,North,8,0.0,0.0,76,0.00,,CLR,0.00,VWS V14.01,2013-03-05 08:46:00,
2013-03-05 03:51:00,3.4,-2.5,30.10,North,8,0.0,0.0,76,0.00,,CLR,0.00,VWS V14.01,2013-03-05 08:51:00,
2013-03-05 03:56:00,3.4,-2.5,30.10,NNE,27,0.0,0.0,76,0.00,,CLR,0.00,VWS V14.01,2013-03-05 08:56:00,
2013-03-05 04:01:00,3.2,-2.9,30.09,NNE,27,0.0,0.0,75,0.00,,CLR,0.00,VWS V14.01,2013-03-05 09:01:00,
2013-03-05 04:06:00,3.2,-2.9,30.09,NE,34,0.0,0.0,75,0.00,,CLR,0.00,VWS V14.01,2013-03-05 09:06:00,
2013-03-05 04:11:00,3.2,-2.9,30.09,NE,34,0.0,0.0,75,0.00,,CLR,0.00,VWS V14.01,2013-03-05 09:11:00,
2013-03-05 04:16:00,3.0,-3.4,30.09,NE,34,0.0,0.0,74,0.00,,CLR,0.00,VWS V14.01,2013-03-05 09:16:00,
2013-03-05 04:21:00,3.2,-2.9,30.09,NE,34,0.0,0.0,75,0.00,,CLR,0.00,VWS V14.01,2013-03-05 09:21:00,
2013-03-05 04:26:00,3.4,-2.7,30.09,NE,34,0.0,0.0,75,0.00,,CLR,0.00,VWS V14.01,2013-03-05 09:26:00,
2013-03-05 04:31:00,3.4,-2.7,30.09,NE,34,0.0,0.0,75,0.00,,CLR,0.00,VWS V14.01,2013-03-05 09:31:00,
2013-03-05 04:36:00,3.4,-2.7,30.09,NE,34,0.0,0.0,75,0.00,,CLR,0.00,VWS V14.01,2013-03-05 09:36:00,
2013-03-05 04:41:00,3.5,-2.6,30.09,NE,34,0.0,0.0,75,0.00,,CLR,0.00,VWS V14.01,2013-03-05 09:41:00,
2013-03-05 04:46:00,3.7,-2.2,30.09,NE,34,0.0,0.0,76,0.00,,CLR,0.00,VWS V14.01,2013-03-05 09:46:00,
2013-03-05 04:51:00,3.7,-2.2,30.09,NE,34,0.0,0.0,76,0.00,,CLR,0.00,VWS V14.01,2013-03-05 09:51:00,
2013-03-05 04:56:00,4.1,-1.8,30.09,NE,34,0.0,0.0,76,0.00,,CLR,0.00,VWS V14.01,2013-03-05 09:56:00,
2013-03-05 05:02:00,4.1,-1.8,30.08,NE,34,0.0,0.0,76,0.00,,CLR,0.00,VWS V14.01,2013-03-05 10:02:00,
2013-03-05 05:06:00,4.3,-1.3,30.08,NE,34,0.0,0.0,77,0.00,,CLR,0.00,VWS V14.01,2013-03-05 10:06:00,
2013-03-05 05:11:00,4.8,-0.5,30.08,NE,34,0.0,0.0,78,0.00,,CLR,0.00,VWS V14.01,2013-03-05 10:11:00,
2013-03-05 05:17:00,5.4,0.3,30.08,NE,37,0.0,0.0,79,0.00,,CLR,0.00,VWS V14.01,2013-03-05 10:17:00,
2013-03-05 05:22:00,5.8,0.7,30.08,ENE,76,0.0,0.0,79,0.00,,CLR,0.00,VWS V14.01,2013-03-05 10:22:00,
2013-03-05 05:27:00,6.5,1.4,30.08,ENE,58,0.0,0.0,79,0.00,,CLR,0.00,VWS V14.01,2013-03-05 10:27:00,
2013-03-05 05:32:00,6.9,1.8,30.07,NE,52,0.0,0.0,79,0.00,,CLR,0.00,VWS V14.01,2013-03-05 10:32:00,
2013-03-05 05:37:00,7.0,1.9,30.07,NE,38,0.0,0.0,79,0.00,,CLR,0.00,VWS V14.01,2013-03-05 10:37:00,
2013-03-05 05:42:00,7.9,2.8,30.07,ENE,61,0.0,0.0,79,0.00,,CLR,0.00,VWS V14.01,2013-03-05 10:42:00,
2013-03-05 05:47:00,8.1,3.2,30.08,ENE,59,0.0,0.0,80,0.00,,CLR,0.00,VWS V14.01,2013-03-05 10:47:00,
2013-03-05 05:52:00,8.3,3.4,30.08,ENE,59,0.0,0.0,80,0.00,,CLR,0.00,VWS V14.01,2013-03-05 10:52:00,
2013-03-05 05:57:00,8.3,3.4,30.08,ENE,59,0.0,0.0,80,0.00,,CLR,0.00,VWS V14.01,2013-03-05 10:57:00,
2013-03-05 06:02:00,8.3,3.4,30.08,ENE,59,0.0,0.0,80,0.00,,CLR,0.00,VWS V14.01,2013-03-05 11:02:00,
2013-03-05 06:07:00,8.1,3.2,30.08,ENE,59,0.0,0.0,80,0.00,,CLR,0.00,VWS V14.01,2013-03-05 11:07:00,
2013-03-05 06:12:00,7.9,3.0,30.08,ENE,59,0.0,0.0,80,0.00,,CLR,0.00,VWS V14.01,2013-03-05 11:12:00,
2013-03-05 06:17:00,7.4,2.0,30.08,ENE,59,0.0,0.0,78,0.00,,CLR,0.00,VWS V14.01,2013-03-05 11:17:00,
2013-03-05 06:22:00,7.0,1.6,30.08,ENE,59,0.0,0.0,78,0.00,,CLR,0.00,VWS V14.01,2013-03-05 11:22:00,
2013-03-05 06:27:00,6.9,1.5,30.08,ENE,62,0.0,0.0,78,0.00,,CLR,0.00,VWS V14.01,2013-03-05 11:27:00,
2013-03-05 06:32:00,6.9,1.5,30.08,ENE,64,0.0,0.0,78,0.00,,CLR,0.00,VWS V14.01,2013-03-05 11:32:00,
2013-03-05 06:37:00,7.0,1.6,30.08,ENE,64,0.0,0.0,78,0.00,,CLR,0.00,VWS V14.01,2013-03-05 11:37:00,
2013-03-05 06:42:00,7.0,1.6,30.08,ENE,64,0.0,0.0,78,0.00,,CLR,0.00,VWS V14.01,2013-03-05 11:42:00,
2013-03-05 06:47:00,7.0,1.6,30.08,ENE,64,0.0,0.0,78,0.00,,CLR,0.00,VWS V14.01,2013-03-05 11:47:00,
2013-03-05 06:52:00,7.6,2.2,30.08,ENE,64,0.0,0.0,78,0.00,,CLR,0.00,VWS V14.01,2013-03-05 11:52:00,
2013-03-05 06:57:00,7.6,2.2,30.08,NE,55,0.0,0.0,78,0.00,,CLR,0.00,VWS V14.01,2013-03-05 11:57:00,
2013-03-05 07:02:00,7.6,2.2,30.07,NE,55,0.0,0.0,78,0.00,,CLR,0.00,VWS V14.01,2013-03-05 12:02:00,
2013-03-05 07:07:00,7.6,2.2,30.07,NE,51,0.0,0.0,78,0.00,,CLR,0.00,VWS V14.01,2013-03-05 12:07:00,
2013-03-05 07:13:00,7.6,2.2,30.07,NE,51,0.0,0.0,78,0.00,,CLR,0.00,VWS V14.01,2013-03-05 12:13:00,
2013-03-05 07:18:00,7.6,2.2,30.06,NE,55,0.0,0.0,78,0.00,,CLR,0.00,VWS V14.01,2013-03-05 12:18:00,
2013-03-05 07:23:00,7.6,2.2,30.06,ENE,68,0.0,0.0,78,0.00,,CLR,0.00,VWS V14.01,2013-03-05 12:23:00,
2013-03-05 07:28:00,7.6,3.0,30.06,NE,54,0.0,0.0,81,0.00,,CLR,0.00,VWS V14.01,2013-03-05 12:28:00,
2013-03-05 07:33:00,10.7,6.0,30.07,ENE,62,0.0,0.0,81,0.00,,CLR,0.00,VWS V14.01,2013-03-05 12:33:00,
2013-03-05 07:38:00,10.7,6.0,30.07,ENE,66,0.0,0.0,81,0.00,,CLR,0.00,VWS V14.01,2013-03-05 12:38:00,
2013-03-05 07:43:00,10.7,6.0,30.07,NE,47,0.0,0.0,81,0.00,,CLR,0.00,VWS V14.01,2013-03-05 12:43:00,
2013-03-05 07:48:00,11.6,6.9,30.07,ENE,58,0.0,0.0,81,0.00,,CLR,0.00,VWS V14.01,2013-03-05 12:48:00,
2013-03-05 07:53:00,11.6,6.9,30.07,East,93,0.0,0.0,81,0.00,,CLR,0.00,VWS V14.01,2013-03-05 12:53:00,
2013-03-05 07:58:00,12.3,7.6,30.07,East,93,0.0,0.0,81,0.00,,CLR,0.00,VWS V14.01,2013-03-05 12:58:00,
2013-03-05 08:03:00,12.3,7.6,30.08,ENE,75,0.0,0.0,81,0.00,,CLR,0.00,VWS V14.01,2013-03-05 13:03:00,
2013-03-05 08:08:00,12.3,7.6,30.08,ENE,75,0.0,0.0,81,0.00,,CLR,0.00,VWS V14.01,2013-03-05 13:08:00,
2013-03-05 08:13:00,12.3,7.6,30.08,NNE,24,0.0,0.0,81,0.00,,CLR,0.00,VWS V14.01,2013-03-05 13:13:00,
2013-03-05 08:18:00,12.3,7.6,30.08,East,79,0.0,0.0,81,0.00,,CLR,0.00,VWS V14.01,2013-03-05 13:18:00,
2013-03-05 08:23:00,13.8,9.1,30.08,ENE,73,0.0,0.0,81,0.00,,CLR,0.00,VWS V14.01,2013-03-05 13:23:00,
2013-03-05 08:28:00,13.8,9.1,30.08,NE,44,0.0,0.0,81,0.00,,CLR,0.00,VWS V14.01,2013-03-05 13:28:00,
2013-03-05 08:33:00,13.8,9.1,30.08,ENE,62,0.0,0.0,81,0.00,,CLR,0.00,VWS V14.01,2013-03-05 13:33:00,
2013-03-05 08:38:00,15.7,10.9,30.08,ENE,59,0.0,0.0,81,0.00,,CLR,0.00,VWS V14.01,2013-03-05 13:38:00,
2013-03-05 08:43:00,15.7,10.9,30.08,NE,35,0.0,0.0,81,0.00,,CLR,0.00,VWS V14.01,2013-03-05 13:43:00,
2013-03-05 08:48:00,17.7,12.9,30.07,NE,38,0.0,0.0,81,0.00,,CLR,0.00,VWS V14.01,2013-03-05 13:48:00,
2013-03-05 08:53:00,18.4,13.6,30.07,NNE,21,0.0,0.0,81,0.00,,CLR,0.00,VWS V14.01,2013-03-05 13:53:00,
2013-03-05 08:58:00,18.4,13.6,30.07,East,100,0.0,0.0,81,0.00,,CLR,0.00,VWS V14.01,2013-03-05 13:58:00,
2013-03-05 09:03:00,18.4,12.7,30.07,ENE,68,0.0,0.0,78,0.00,,CLR,0.00,VWS V14.01,2013-03-05 14:03:00,
2013-03-05 09:08:00,18.4,12.7,30.07,NNE,27,0.0,0.0,78,0.00,,CLR,0.00,VWS V14.01,2013-03-05 14:08:00,
2013-03-05 09:14:00,18.4,11.5,30.07,ENE,78,0.0,0.0,74,0.00,,CLR,0.00,VWS V14.01,2013-03-05 14:14:00,
2013-03-05 09:19:00,20.3,13.4,30.07,ENE,76,0.0,0.0,74,0.00,,CLR,0.00,VWS V14.01,2013-03-05 14:19:00,
2013-03-05 09:24:00,20.8,13.8,30.07,North,356,0.0,0.0,74,0.00,,CLR,0.00,VWS V14.01,2013-03-05 14:24:00,
2013-03-05 09:29:00,21.8,14.8,30.07,NE,55,5.0,12.0,74,0.00,,CLR,0.00,VWS V14.01,2013-03-05 14:29:00,
2013-03-05 09:34:00,22.1,15.1,30.06,NE,52,0.0,0.0,74,0.00,,CLR,0.00,VWS V14.01,2013-03-05 14:34:00,
2013-03-05 09:39:00,23.3,14.0,30.06,NE,52,0.0,0.0,67,0.00,,CLR,0.00,VWS V14.01,2013-03-05 14:39:00,
2013-03-05 09:44:00,23.8,14.8,30.06,NE,51,0.0,0.0,68,0.00,,CLR,0.00,VWS V14.01,2013-03-05 14:44:00,
2013-03-05 09:49:00,23.8,14.8,30.05,NE,41,0.0,0.0,68,0.00,,CLR,0.00,VWS V14.01,2013-03-05 14:49:00,
2013-03-05 09:54:00,23.8,14.8,30.05,East,80,0.0,3.0,68,0.00,,CLR,0.00,VWS V14.01,2013-03-05 14:54:00,
2013-03-05 09:59:00,24.7,14.3,30.05,ENE,71,0.0,0.0,64,0.00,,CLR,0.00,VWS V14.01,2013-03-05 14:59:00,
2013-03-05 10:04:00,25.0,14.6,30.05,East,90,10.0,10.0,64,0.00,,CLR,0.00,VWS V14.01,2013-03-05 15:04:00,
2013-03-05 10:09:00,25.1,14.6,30.05,NNE,17,2.0,2.0,64,0.00,,CLR,0.00,VWS V14.01,2013-03-05 15:09:00,
2013-03-05 10:14:00,25.1,14.6,30.05,NNE,25,0.0,0.0,64,0.00,,CLR,0.00,VWS V14.01,2013-03-05 15:14:00,
2013-03-05 10:19:00,25.1,14.6,30.04,ENE,66,2.0,2.0,64,0.00,,CLR,0.00,VWS V14.01,2013-03-05 15:19:00,
2013-03-05 10:24:00,26.0,14.8,30.04,ENE,68,0.0,0.0,62,0.00,,CLR,0.00,VWS V14.01,2013-03-05 15:24:00,
2013-03-05 10:29:00,26.0,14.8,30.04,ENE,59,3.0,3.0,62,0.00,,CLR,0.00,VWS V14.01,2013-03-05 15:29:00,
2013-03-05 10:34:00,26.0,14.8,30.04,NE,48,0.0,0.0,62,0.00,,CLR,0.00,VWS V14.01,2013-03-05 15:34:00,
2013-03-05 10:39:00,26.1,14.9,30.04,NNE,16,0.0,0.0,62,0.00,,CLR,0.00,VWS V14.01,2013-03-05 15:39:00,
2013-03-05 10:45:00,26.1,14.9,30.04,ENE,62,7.0,7.0,62,0.00,,CLR,0.00,VWS V14.01,2013-03-05 15:45:00,
2013-03-05 10:50:00,26.7,15.4,30.03,NE,54,2.0,5.0,62,0.00,,CLR,0.00,VWS V14.01,2013-03-05 15:50:00,
2013-03-05 10:55:00,26.7,15.4,30.03,East,80,9.0,9.0,62,0.00,,CLR,0.00,VWS V14.01,2013-03-05 15:55:00,
2013-03-05 11:00:00,27.2,15.2,30.03,NE,47,0.0,0.0,60,0.00,,CLR,0.00,VWS V14.01,2013-03-05 16:00:00,
2013-03-05 11:05:00,27.6,15.6,30.02,East,82,0.0,0.0,60,0.00,,CLR,0.00,VWS V14.01,2013-03-05 16:05:00,
2013-03-05 11:10:00,27.6,15.2,30.02,NE,47,6.0,6.0,59,0.00,,CLR,0.00,VWS V14.01,2013-03-05 16:10:00,
2013-03-05 11:15:00,28.1,15.6,30.02,North,10,2.0,2.0,59,0.00,,CLR,0.00,VWS V14.01,2013-03-05 16:15:00,
2013-03-05 11:20:00,28.1,15.6,30.02,NNW,340,0.0,0.0,59,0.00,,CLR,0.00,VWS V14.01,2013-03-05 16:20:00,
2013-03-05 11:25:00,28.5,16.0,30.02,North,11,0.0,0.0,59,0.00,,CLR,0.00,VWS V14.01,2013-03-05 16:25:00,
2013-03-05 11:30:00,28.5,16.0,30.02,NE,35,2.0,2.0,59,0.00,,CLR,0.00,VWS V14.01,2013-03-05 16:30:00,
2013-03-05 11:35:00,28.7,16.2,30.02,NE,48,0.0,0.0,59,0.00,,CLR,0.00,VWS V14.01,2013-03-05 16:35:00,
2013-03-05 11:40:00,28.4,15.9,30.02,NE,52,1.0,1.0,59,0.00,,CLR,0.00,VWS V14.01,2013-03-05 16:40:00,
2013-03-05 11:45:00,28.4,15.9,30.02,NE,51,0.0,0.0,59,0.00,,CLR,0.00,VWS V14.01,2013-03-05 16:45:00,
2013-03-05 11:50:00,28.4,15.9,30.02,NE,42,5.0,5.0,59,0.00,,CLR,0.00,VWS V14.01,2013-03-05 16:50:00,
2013-03-05 11:55:00,28.4,14.7,30.02,NNE,16,0.0,0.0,56,0.00,,CLR,0.00,VWS V14.01,2013-03-05 16:55:00,
2013-03-05 12:00:00,29.0,15.3,30.01,North,11,5.0,5.0,56,0.00,,CLR,0.00,VWS V14.01,2013-03-05 17:00:00,
2013-03-05 12:05:00,28.7,15.0,30.01,NNE,23,0.0,2.0,56,0.00,,CLR,0.00,VWS V14.01,2013-03-05 17:05:00,
2013-03-05 12:10:00,28.8,15.1,30.01,NE,40,0.0,0.0,56,0.00,,CLR,0.00,VWS V14.01,2013-03-05 17:10:00,
2013-03-05 12:15:00,29.0,15.3,30.00,North,0,6.0,6.0,56,0.00,,CLR,0.00,VWS V14.01,2013-03-05 17:15:00,
2013-03-05 12:21:00,28.7,15.0,30.00,NNE,18,4.0,4.0,56,0.00,,CLR,0.00,VWS V14.01,2013-03-05 17:21:00,
2013-03-05 12:26:00,28.7,15.0,30.00,North,0,3.0,3.0,56,0.00,,CLR,0.00,VWS V14.01,2013-03-05 17:26:00,
2013-03-05 12:31:00,28.7,15.0,30.00,NNE,17,7.0,7.0,56,0.00,,CLR,0.00,VWS V14.01,2013-03-05 17:31:00,
2013-03-05 12:36:00,28.7,15.0,30.00,NNE,24,7.0,7.0,56,0.00,,CLR,0.00,VWS V14.01,2013-03-05 17:36:00,
2013-03-05 12:41:00,29.0,15.3,30.00,NW,315,0.0,3.0,56,0.00,,CLR,0.00,VWS V14.01,2013-03-05 17:41:00,
2013-03-05 12:46:00,29.5,15.8,29.99,North,11,5.0,5.0,56,0.00,,CLR,0.00,VWS V14.01,2013-03-05 17:46:00,
2013-03-05 12:51:00,30.0,16.2,29.99,NNE,21,3.0,3.0,56,0.00,,CLR,0.00,VWS V14.01,2013-03-05 17:51:00,
2013-03-05 12:56:00,30.0,16.2,29.99,NNE,25,7.0,7.0,56,0.00,,CLR,0.00,VWS V14.01,2013-03-05 17:56:00,
2013-03-05 13:01:00,30.0,16.2,29.99,NE,37,0.0,7.0,56,0.00,,CLR,0.00,VWS V14.01,2013-03-05 18:01:00,
2013-03-05 13:06:00,30.3,16.5,29.99,NE,47,3.0,3.0,56,0.00,,CLR,0.00,VWS V14.01,2013-03-05 18:06:00,
2013-03-05 13:11:00,30.3,16.1,29.99,NNW,335,7.0,7.0,55,0.00,,CLR,0.00,VWS V14.01,2013-03-05 18:11:00,
2013-03-05 13:16:00,30.3,15.7,29.99,NNE,17,4.0,4.0,54,0.00,,CLR,0.00,VWS V14.01,2013-03-05 18:16:00,
2013-03-05 13:21:00,30.0,15.4,29.99,ENE,61,5.0,5.0,54,0.00,,CLR,0.00,VWS V14.01,2013-03-05 18:21:00,
2013-03-05 13:26:00,30.0,15.4,29.99,NNE,13,5.0,5.0,54,0.00,,CLR,0.00,VWS V14.01,2013-03-05 18:26:00,
2013-03-05 13:31:00,30.1,15.5,29.99,NNE,18,3.0,3.0,54,0.00,,CLR,0.00,VWS V14.01,2013-03-05 18:31:00,
2013-03-05 13:36:00,30.1,15.5,29.99,North,11,0.0,0.0,54,0.00,,CLR,0.00,VWS V14.01,2013-03-05 18:36:00,
2013-03-05 13:41:00,30.7,16.0,29.99,ENE,64,2.0,2.0,54,0.00,,CLR,0.00,VWS V14.01,2013-03-05 18:41:00,
2013-03-05 13:46:00,31.2,16.5,29.98,NNE,16,6.0,6.0,54,0.00,,CLR,0.00,VWS V14.01,2013-03-05 18:46:00,
2013-03-05 13:51:00,31.2,16.9,29.98,North,7,9.0,9.0,55,0.00,,CLR,0.00,VWS V14.01,2013-03-05 18:51:00,
2013-03-05 13:57:00,31.2,16.9,29.98,NNE,30,6.0,6.0,55,0.00,,CLR,0.00,VWS V14.01,2013-03-05 18:57:00,
2013-03-05 14:02:00,31.2,16.9,29.97,NE,55,7.0,7.0,55,0.00,,CLR,0.00,VWS V14.01,2013-03-05 19:02:00,
2013-03-05 14:07:00,30.6,16.4,29.97,NW,313,6.0,6.0,55,0.00,,CLR,0.00,VWS V14.01,2013-03-05 19:07:00,
2013-03-05 14:12:00,30.4,16.2,29.97,NNE,28,7.0,7.0,55,0.00,,CLR,0.00,VWS V14.01,2013-03-05 19:12:00,
2013-03-05 14:17:00,30.1,15.9,29.97,North,4,12.0,12.0,55,0.00,,CLR,0.00,VWS V14.01,2013-03-05 19:17:00,
2013-03-05 14:22:00,30.1,15.9,29.97,NNE,18,10.0,10.0,55,0.00,,CLR,0.00,VWS V14.01,2013-03-05 19:22:00,
2013-03-05 14:27:00,29.4,15.2,29.97,North,10,7.0,7.0,55,0.00,,CLR,0.00,VWS V14.01,2013-03-05 19:27:00,
2013-03-05 14:32:00,29.4,17.2,29.97,NNE,24,7.0,7.0,60,0.00,,CLR,0.00,VWS V14.01,2013-03-05 19:32:00,
2013-03-05 14:37:00,29.4,16.9,29.97,NE,45,6.0,6.0,59,0.00,,CLR,0.00,VWS V14.01,2013-03-05 19:37:00,
2013-03-05 14:42:00,29.4,16.9,29.97,NW,322,3.0,10.0,59,0.00,,CLR,0.00,VWS V14.01,2013-03-05 19:42:00,
2013-03-05 14:47:00,29.7,17.1,29.97,NNE,20,6.0,6.0,59,0.00,,CLR,0.00,VWS V14.01,2013-03-05 19:47:00,
2013-03-05 14:52:00,29.7,17.1,29.97,NNE,13,7.0,7.0,59,0.00,,CLR,0.00,VWS V14.01,2013-03-05 19:52:00,
2013-03-05 14:57:00,29.7,17.1,29.97,NNE,24,3.0,3.0,59,0.00,,CLR,0.00,VWS V14.01,2013-03-05 19:57:00,
2013-03-05 15:02:00,29.5,17.0,29.96,North,359,3.0,3.0,59,0.00,,CLR,0.00,VWS V14.01,2013-03-05 20:02:00,
2013-03-05 15:07:00,30.0,17.4,29.96,North,7,5.0,9.0,59,0.00,,CLR,0.00,VWS V14.01,2013-03-05 20:07:00,
2013-03-05 15:12:00,30.0,17.4,29.96,NE,38,6.0,6.0,59,0.00,,CLR,0.00,VWS V14.01,2013-03-05 20:12:00,
2013-03-05 15:17:00,29.4,17.2,29.96,NE,44,10.0,10.0,60,0.00,,CLR,0.00,VWS V14.01,2013-03-05 20:17:00,
2013-03-05 15:22:00,29.1,17.0,29.96,NNE,31,5.0,8.0,60,0.00,,CLR,0.00,VWS V14.01,2013-03-05 20:22:00,
2013-03-05 15:27:00,29.1,17.3,29.96,NE,35,10.0,10.0,61,0.00,,CLR,0.00,VWS V14.01,2013-03-05 20:27:00,
2013-03-05 15:33:00,29.0,17.6,29.96,North,11,7.0,7.0,62,0.00,,CLR,0.00,VWS V14.01,2013-03-05 20:33:00,
2013-03-05 15:38:00,29.1,17.7,29.96,NW,311,6.0,6.0,62,0.00,,CLR,0.00,VWS V14.01,2013-03-05 20:38:00,
2013-03-05 15:43:00,29.4,17.6,29.96,NE,37,3.0,12.0,61,0.00,,CLR,0.00,VWS V14.01,2013-03-05 20:43:00,
2013-03-05 15:48:00,29.8,17.6,29.96,NNE,31,8.0,8.0,60,0.00,,CLR,0.00,VWS V14.01,2013-03-05 20:48:00,
2013-03-05 15:53:00,29.8,18.0,29.96,NW,313,3.0,10.0,61,0.00,,CLR,0.00,VWS V14.01,2013-03-05 20:53:00,
2013-03-05 15:58:00,29.8,18.0,29.96,NNE,24,7.0,7.0,61,0.00,,CLR,0.00,VWS V14.01,2013-03-05 20:58:00,
2013-03-05 16:03:00,29.8,18.0,29.96,North,10,6.0,7.0,61,0.00,,CLR,0.00,VWS V14.01,2013-03-05 21:03:00,
2013-03-05 16:08:00,29.8,18.0,29.96,NE,38,3.0,3.0,61,0.00,,CLR,0.00,VWS V14.01,2013-03-05 21:08:00,
2013-03-05 16:13:00,29.7,17.9,29.96,North,7,10.0,10.0,61,0.00,,CLR,0.00,VWS V14.01,2013-03-05 21:13:00,
2013-03-05 16:18:00,29.3,17.5,29.96,North,11,14.0,14.0,61,0.00,,CLR,0.00,VWS V14.01,2013-03-05 21:18:00,
2013-03-05 16:23:00,29.3,17.9,29.96,NNE,28,3.0,3.0,62,0.00,,CLR,0.00,VWS V14.01,2013-03-05 21:23:00,
2013-03-05 16:28:00,29.3,17.9,29.96,North,1,6.0,6.0,62,0.00,,CLR,0.00,VWS V14.01,2013-03-05 21:28:00,
2013-03-05 16:33:00,29.3,17.9,29.96,North,359,5.0,10.0,62,0.00,,CLR,0.00,VWS V14.01,2013-03-05 21:33:00,
2013-03-05 16:38:00,28.5,17.1,29.96,North,8,8.0,8.0,62,0.00,,CLR,0.00,VWS V14.01,2013-03-05 21:38:00,
2013-03-05 16:44:00,28.5,17.1,29.96,North,3,11.0,17.0,62,0.00,,CLR,0.00,VWS V14.01,2013-03-05 21:44:00,
2013-03-05 16:49:00,28.2,16.9,29.96,North,8,5.0,18.0,62,0.00,,CLR,0.00,VWS V14.01,2013-03-05 21:49:00,
2013-03-05 16:54:00,28.2,17.2,29.96,NE,37,3.0,3.0,63,0.00,,CLR,0.00,VWS V14.01,2013-03-05 21:54:00,
2013-03-05 16:59:00,27.9,17.0,29.96,NNE,25,10.0,14.0,63,0.00,,CLR,0.00,VWS V14.01,2013-03-05 21:59:00,
2013-03-05 17:04:00,27.6,16.7,29.96,NNE,28,8.0,8.0,63,0.00,,CLR,0.00,VWS V14.01,2013-03-05 22:04:00,
2013-03-05 17:09:00,27.6,17.0,29.96,NNE,24,14.0,14.0,64,0.00,,CLR,0.00,VWS V14.01,2013-03-05 22:09:00,
2013-03-05 17:14:00,27.2,17.0,29.96,North,0,8.0,8.0,65,0.00,,CLR,0.00,VWS V14.01,2013-03-05 22:14:00,
2013-03-05 17:19:00,27.2,17.0,29.96,NNE,27,5.0,5.0,65,0.00,,CLR,0.00,VWS V14.01,2013-03-05 22:19:00,
2013-03-05 17:24:00,27.2,17.0,29.96,NNE,21,13.0,13.0,65,0.00,,CLR,0.00,VWS V14.01,2013-03-05 22:24:00,
2013-03-05 17:29:00,27.2,17.0,29.96,North,359,6.0,6.0,65,0.00,,CLR,0.00,VWS V14.01,2013-03-05 22:29:00,
2013-03-05 17:34:00,26.4,16.6,29.96,NNE,18,7.0,7.0,66,0.00,,CLR,0.00,VWS V14.01,2013-03-05 22:34:00,
2013-03-05 17:39:00,26.1,16.3,29.96,North,0,7.0,7.0,66,0.00,,CLR,0.00,VWS V14.01,2013-03-05 22:39:00,
2013-03-05 17:44:00,26.1,16.3,29.96,NNE,20,7.0,7.0,66,0.00,,CLR,0.00,VWS V14.01,2013-03-05 22:44:00,
2013-03-05 17:49:00,25.8,16.0,29.96,NNE,30,10.0,12.0,66,0.00,,CLR,0.00,VWS V14.01,2013-03-05 22:49:00,
2013-03-05 17:55:00,25.7,15.9,29.96,NNE,25,11.0,11.0,66,0.00,,CLR,0.00,VWS V14.01,2013-03-05 22:55:00,
2013-03-05 18:00:00,25.6,15.8,29.96,NNE,24,14.0,14.0,66,0.00,,SCT020,0.00,VWS V14.01,2013-03-05 23:00:00,
2013-03-05 18:05:00,25.4,15.6,29.96,North,7,5.0,7.0,66,0.00,,SCT020,0.00,VWS V14.01,2013-03-05 23:05:00,
2013-03-05 18:10:00,25.1,15.4,29.96,North,4,11.0,11.0,66,0.00,,SCT020,0.00,VWS V14.01,2013-03-05 23:10:00,
2013-03-05 18:15:00,25.1,15.4,29.96,NE,37,12.0,12.0,66,0.00,,SCT020,0.00,VWS V14.01,2013-03-05 23:15:00,
2013-03-05 18:20:00,24.5,14.8,29.96,NNE,13,10.0,10.0,66,0.00,,BKN018,0.00,VWS V14.01,2013-03-05 23:20:00,
2013-03-05 18:25:00,24.4,14.7,29.96,North,359,5.0,5.0,66,0.00,,BKN018,0.00,VWS V14.01,2013-03-05 23:25:00,
2013-03-05 18:30:00,24.4,14.7,29.96,NNE,20,4.0,4.0,66,0.00,,BKN018,0.00,VWS V14.01,2013-03-05 23:30:00,
2013-03-05 18:35:00,24.2,14.5,29.96,North,0,0.0,0.0,66,0.00,,BKN018,0.00,VWS V14.01,2013-03-05 23:35:00,
2013-03-05 18:40:00,24.1,14.4,29.96,NNE,23,6.0,6.0,66,0.00,,SCT016,0.00,VWS V14.01,2013-03-05 23:40:00,
2013-03-05 18:45:00,24.1,16.4,29.97,NNE,20,10.0,14.0,72,0.00,,SCT016,0.00,VWS V14.01,2013-03-05 23:45:00,
2013-03-05 18:50:00,24.1,16.4,29.97,North,10,9.0,9.0,72,0.00,,SCT016,0.00,VWS V14.01,2013-03-05 23:50:00,
2013-03-05 18:55:00,24.2,16.5,29.97,NNE,17,5.0,5.0,72,0.00,,SCT016,0.00,VWS V14.01,2013-03-05 23:55:00,
2013-03-05 19:00:00,24.4,16.7,29.97,ENE,58,2.0,8.0,72,0.00,,CLR,0.00,VWS V14.01,2013-03-06 00:00:00,
2013-03-05 19:05:00,24.2,16.5,29.97,NNE,14,1.0,10.0,72,0.00,,CLR,0.00,VWS V14.01,2013-03-06 00:05:00,
2013-03-05 19:11:00,24.2,16.5,29.97,North,359,7.0,7.0,72,0.00,,CLR,0.00,VWS V14.01,2013-03-06 00:11:00,
2013-03-05 19:16:00,24.2,16.5,29.97,NE,48,5.0,13.0,72,0.00,,CLR,0.00,VWS V14.01,2013-03-06 00:16:00,
2013-03-05 19:21:00,24.2,16.5,29.97,NNE,13,8.0,8.0,72,0.00,,BKN017,0.00,VWS V14.01,2013-03-06 00:21:00,
2013-03-05 19:26:00,24.2,15.8,29.97,NE,35,3.0,6.0,70,0.00,,BKN017,0.00,VWS V14.01,2013-03-06 00:26:00,
2013-03-05 19:31:00,24.2,15.8,29.97,NNE,25,10.0,10.0,70,0.00,,BKN017,0.00,VWS V14.01,2013-03-06 00:31:00,
2013-03-05 19:36:00,24.2,15.8,29.97,NE,52,2.0,2.0,70,0.00,,BKN017,0.00,VWS V14.01,2013-03-06 00:36:00,
2013-03-05 19:41:00,24.2,15.8,29.97,NE,52,2.0,2.0,70,0.00,,OVC019,0.00,VWS V14.01,2013-03-06 00:41:00,
2013-03-05 19:46:00,24.2,15.8,29.98,NNE,17,0.0,0.0,70,0.00,,OVC019,0.00,VWS V14.01,2013-03-06 00:46:00,
2013-03-05 19:51:00,24.5,16.1,29.98,NW,313,0.0,0.0,70,0.00,,OVC019,0.00,VWS V14.01,2013-03-06 00:51:00,
2013-03-05 19:56:00,24.5,16.1,29.98,NNE,16,7.0,7.0,70,0.00,,OVC019,0.00,VWS V14.01,2013-03-06 00:56:00,
2013-03-05 20:01:00,24.4,16.0,29.98,North,0,5.0,7.0,70,0.00,,OVC021,0.00,VWS V14.01,2013-03-06 01:01:00,
2013-03-05 20:06:00,24.4,16.0,29.98,WNW,294,0.0,0.0,70,0.00,,OVC021,0.00,VWS V14.01,2013-03-06 01:06:00,
2013-03-05 20:11:00,24.4,15.7,29.98,North,0,0.0,0.0,69,0.00,,OVC021,0.00,VWS V14.01,2013-03-06 01:11:00,
2013-03-05 20:17:00,24.4,15.7,29.98,NNE,31,0.0,0.0,69,0.00,,OVC021,0.00,VWS V14.01,2013-03-06 01:17:00,
2013-03-05 20:22:00,24.5,15.8,29.98,NE,37,0.0,0.0,69,0.00,,OVC019,0.00,VWS V14.01,2013-03-06 01:22:00,
2013-03-05 20:27:00,24.5,15.8,29.98,NNE,16,0.0,0.0,69,0.00,,OVC019,0.00,VWS V14.01,2013-03-06 01:27:00,
2013-03-05 20:32:00,24.5,15.8,29.99,NNE,13,0.0,0.0,69,0.00,,OVC019,0.00,VWS V14.01,2013-03-06 01:32:00,
2013-03-05 20:37:00,24.5,15.8,29.99,NNE,14,0.0,0.0,69,0.00,,OVC019,0.00,VWS V14.01,2013-03-06 01:37:00,
2013-03-05 20:42:00,24.7,16.0,29.99,North,8,0.0,0.0,69,0.00,,OVC024,0.00,VWS V14.01,2013-03-06 01:42:00,
2013-03-05 20:47:00,24.8,16.1,29.99,ENE,64,0.0,2.0,69,0.00,,OVC024,0.00,VWS V14.01,2013-03-06 01:47:00,
2013-03-05 20:52:00,24.8,16.1,29.99,North,0,2.0,2.0,69,0.00,,OVC024,0.00,VWS V14.01,2013-03-06 01:52:00,
2013-03-05 20:57:00,25.0,16.3,29.99,NNE,13,0.0,0.0,69,0.00,,OVC024,0.00,VWS V14.01,2013-03-06 01:57:00,
2013-03-05 21:02:00,25.0,16.3,30.00,NW,313,0.0,0.0,69,0.00,,OVC024,0.00,VWS V14.01,2013-03-06 02:02:00,
2013-03-05 21:07:00,25.1,16.4,30.00,NNE,25,0.0,0.0,69,0.00,,OVC024,0.00,VWS V14.01,2013-03-06 02:07:00,
2013-03-05 21:12:00,25.1,16.4,30.00,NW,313,2.0,2.0,69,0.00,,OVC024,0.00,VWS V14.01,2013-03-06 02:12:00,
2013-03-05 21:17:00,25.0,16.6,29.99,North,8,0.0,0.0,70,0.00,,OVC024,0.00,VWS V14.01,2013-03-06 02:17:00,
2013-03-05 21:22:00,25.0,16.6,29.99,NNE,16,0.0,0.0,70,0.00,,OVC024,0.00,VWS V14.01,2013-03-06 02:22:00,
2013-03-05 21:27:00,25.0,16.6,29.99,NNE,16,0.0,0.0,70,0.00,,OVC024,0.00,VWS V14.01,2013-03-06 02:27:00,
2013-03-05 21:32:00,25.0,16.6,30.00,North,359,0.0,0.0,70,0.00,,OVC024,0.00,VWS V14.01,2013-03-06 02:32:00,
2013-03-05 21:37:00,25.0,16.6,30.00,NNE,14,2.0,2.0,70,0.00,,OVC024,0.00,VWS V14.01,2013-03-06 02:37:00,
2013-03-05 21:42:00,25.0,16.6,30.00,NNE,20,0.0,0.0,70,0.00,,OVC024,0.00,VWS V14.01,2013-03-06 02:42:00,
2013-03-05 21:47:00,25.0,16.6,30.01,NNE,31,0.0,0.0,70,0.00,,OVC024,0.00,VWS V14.01,2013-03-06 02:47:00,
2013-03-05 21:52:00,25.0,16.6,30.01,NNE,32,0.0,0.0,70,0.00,,OVC024,0.00,VWS V14.01,2013-03-06 02:52:00,
2013-03-05 21:57:00,25.3,16.9,30.01,NNE,16,0.0,0.0,70,0.00,,OVC024,0.00,VWS V14.01,2013-03-06 02:57:00,
2013-03-05 22:02:00,25.3,16.9,30.01,NNE,17,5.0,5.0,70,0.00,,OVC024,0.00,VWS V14.01,2013-03-06 03:02:00,
2013-03-05 22:08:00,25.3,16.6,30.01,NNE,27,5.0,5.0,69,0.00,,OVC024,0.00,VWS V14.01,2013-03-06 03:08:00,
2013-03-05 22:13:00,25.3,16.6,30.01,North,359,0.0,0.0,69,0.00,,OVC024,0.00,VWS V14.01,2013-03-06 03:13:00,
2013-03-05 22:18:00,25.3,16.2,30.01,NE,38,0.0,0.0,68,0.00,,OVC024,0.00,VWS V14.01,2013-03-06 03:18:00,
2013-03-05 22:23:00,25.4,16.7,30.01,NNE,23,0.0,0.0,69,0.00,,OVC026,0.00,VWS V14.01,2013-03-06 03:23:00,
2013-03-05 22:28:00,25.4,16.7,30.01,NNE,18,0.0,0.0,69,0.00,,OVC026,0.00,VWS V14.01,2013-03-06 03:28:00,
2013-03-05 22:33:00,25.4,16.7,30.00,North,11,0.0,0.0,69,0.00,,OVC026,0.00,VWS V14.01,2013-03-06 03:33:00,
2013-03-05 22:38:00,25.3,16.6,30.00,North,0,0.0,0.0,69,0.00,,OVC026,0.00,VWS V14.01,2013-03-06 03:38:00,
2013-03-05 22:43:00,25.3,16.6,30.00,North,354,0.0,0.0,69,0.00,,OVC026,0.00,VWS V14.01,2013-03-06 03:43:00,
2013-03-05 22:48:00,25.3,16.6,30.00,NNE,21,0.0,0.0,69,0.00,,OVC026,0.00,VWS V14.01,2013-03-06 03:48:00,
2013-03-05 22:53:00,25.3,16.6,30.00,NE,34,0.0,0.0,69,0.00,,OVC026,0.00,VWS V14.01,2013-03-06 03:53:00,
2013-03-05 22:58:00,25.3,16.6,30.00,NNE,23,0.0,0.0,69,0.00,,OVC026,0.00,VWS V14.01,2013-03-06 03:58:00,
2013-03-05 23:03:00,25.3,16.6,30.00,NNE,28,0.0,0.0,69,0.00,,OVC028,0.00,VWS V14.01,2013-03-06 04:03:00,
2013-03-05 23:08:00,25.3,16.6,30.00,NE,37,5.0,5.0,69,0.00,,OVC028,0.00,VWS V14.01,2013-03-06 04:08:00,
2013-03-05 23:13:00,25.3,16.6,30.00,NNE,14,0.0,0.0,69,0.00,,OVC028,0.00,VWS V14.01,2013-03-06 04:13:00,
2013-03-05 23:18:00,25.3,16.6,30.00,NNE,20,0.0,0.0,69,0.00,,OVC028,0.00,VWS V14.01,2013-03-06 04:18:00,
2013-03-05 23:23:00,25.1,16.4,30.00,NNE,16,0.0,0.0,69,0.00,,OVC030,0.00,VWS V14.01,2013-03-06 04:23:00,
2013-03-05 23:28:00,25.1,16.0,30.00,NNE,24,2.0,2.0,68,0.00,,OVC030,0.00,VWS V14.01,2013-03-06 04:28:00,
2013-03-05 23:34:00,25.1,16.0,30.00,NNE,20,0.0,0.0,68,0.00,,OVC030,0.00,VWS V14.01,2013-03-06 04:34:00,
2013-03-05 23:39:00,25.1,16.0,30.00,North,0,0.0,0.0,68,0.00,,OVC030,0.00,VWS V14.01,2013-03-06 04:39:00,
2013-03-05 23:44:00,25.1,16.0,30.00,NNE,23,0.0,0.0,68,0.00,,OVC034,0.00,VWS V14.01,2013-03-06 04:44:00,
2013-03-05 23:49:00,25.1,16.4,30.00,NNE,24,0.0,0.0,69,0.00,,OVC034,0.00,VWS V14.01,2013-03-06 04:49:00,
2013-03-05 23:54:00,25.0,16.3,30.00,NNE,23,0.0,0.0,69,0.00,,OVC034,0.00,VWS V14.01,2013-03-06 04:54:00,
2013-03-05 23:59:00,25.0,16.3,30.00,NNE,21,0.0,0.0,69,0.00,,OVC034,0.00,VWS V14.01,2013-03-06 04:59:00,